Starlink 4509

operational
NORAD ID: 53404 Int'l Des: 2022-097 Owner: SPXS Country: US Constellation: starlink
LEOCIRCULAR

About Starlink 4509

Description loading...

Live Position

Loading 3D Globe...

Upcoming Passes

Altitude History

Altitude vs Time

uPlot chart will show altitude changes over time

Two-Line Element Set

1 53404U 22097S 25301.43283587 -.00000274 00000-0 90118-6 0 9996
2 53404 53.2182 347.7778 0001327 91.4360 268.6784 15.08835990178687
Epoch: Oct 28, 2025 • Age: 26 hours

Current Status

Altitude 540.0 km
Velocity 7.60 km/s
Sub-Earth Point 21.03°N, 142.42°E
Launch Date Aug 10, 2022
Age 3.2 years
Type internet

Technical Details

Classification Payload
Mass 297.00 kg
Dry Mass 275.00 kg
Total Mass 297.00 kg
Length 0.20 m
Diameter 2.80 m
Span 9.00 m
Shape Box + pan
Manufacturer SPXS
Bus Type Starlink
Phase Status In Orbit
Owner/State SPXS/US

Large Constellations

Loading constellations...